Jackson, MI

1:38 AM EDT on August 18, 2019 (GMT -0400)
Jackson County-Reynolds

Weather History for KJXN - June, 2019

Change the Weather History Date:

Wednesday, June 5, 2019

  Actual Average Record
Temperature  
Mean Temperature 72 °F 64 °F  
Max Temperature 80 °F 76 °F 91 °F (1971)
Min Temperature 63 °F 53 °F 36 °F (1990)
Degree Days  
Heating Degree Days 0 3  
Month to date heating degree days 21 18  
Since 1 June heating degree days 21 18  
Since 1 July heating degree days 6657 6620  
Cooling Degree Days 7 3  
Month to date cooling degree days 9 11  
Year to date cooling degree days 19 48  
Since 1 June cooling degree days 9 11  
Growing Degree Days 22 (Base 50)    
Moisture  
Dew Point 63 °F    
Average Humidity 79    
Maximum Humidity 100    
Minimum Humidity 58    
Precipitation  
Precipitation 0.92 in 0.10 in 2.11 in (1953)
Month to date precipitation 1.71 0.51  
Year to date precipitation 13.72 11.11  
Sea Level Pressure  
Sea Level Pressure 29.75 in    
Wind  
Wind Speed 10 mph (SW)    
Max Wind Speed 26 mph    
Max Gust Speed 35 mph    
Visibility 8 miles    
Events Rain , Thunderstorm    
T = Trace of Precipitation, MM = Missing Value Source: NWS Daily Summary

Daily Weather History Graph

Daily Weather History Graph

Search for Another Location

Airport or City:

Astronomy

Jun. 05, 2019 Rise Set
Actual Time 6:02 AM EDT 9:10 PM EDT
Civil Twilight 5:28 AM EDT 9:44 PM EDT
Nautical Twilight 4:44 AM EDT 10:28 PM EDT
Astronomical Twilight 3:52 AM EDT 11:21 PM EDT
Moon 8:06 AM EDT (6/5) 11:36 PM EDT (6/5)
Length of Visible Light 16h 16m
Length of Day
15h 08m
Waxing Crescent, 6% of the Moon is Illuminated
Jun 5
Waxing Crescent
Jun 10
First Quarter
Jun 17
Full
Jun 25
Last Quarter
Jul 2
New

Hourly Weather History & Observations

Time (EDT) Temp. Heat Index Dew Point Humidity Pressure Visibility Wind Dir Wind Speed Gust Speed Precip Events Conditions
12:56 AM 66.9 °F - 55.9 °F 68% 29.81 in 10.0 mi South 8.1 mph - N/A   Partly Cloudy
1:56 AM 68.0 °F - 53.1 °F 59% 29.79 in 10.0 mi SSW 9.2 mph - N/A   Clear
2:56 AM 66.9 °F - 53.1 °F 61% 29.78 in 10.0 mi South 6.9 mph - N/A   Clear
3:56 AM 66.9 °F - 54.0 °F 63% 29.74 in 10.0 mi South 6.9 mph - N/A   Clear
4:56 AM 66.9 °F - 55.9 °F 68% 29.74 in 10.0 mi South 6.9 mph - N/A   Partly Cloudy
5:43 AM 66.0 °F - 60.1 °F 81% 29.76 in 10.0 mi SSW 10.4 mph - 0.01 in Thunderstorm Overcast
5:47 AM 66.0 °F - 60.1 °F 81% 29.76 in 5.0 mi SW 11.5 mph - 0.04 in Rain , Thunderstorm Light Thunderstorms and Rain
5:50 AM 64.4 °F - 60.8 °F 88% 29.78 in 2.0 mi SW 12.7 mph 19.6 mph 0.11 in Rain , Thunderstorm Heavy Thunderstorms and Rain
5:56 AM 64.0 °F - 62.1 °F 93% 29.79 in 0.8 mi SW 26.5 mph 35.7 mph 0.39 in Rain , Thunderstorm Heavy Thunderstorms and Rain
6:08 AM 64.0 °F - 63.0 °F 96% 29.80 in 1.0 mi SSW 13.8 mph 28.8 mph 0.33 in Rain , Thunderstorm Heavy Thunderstorms and Rain
6:11 AM 64.0 °F - 63.0 °F 96% 29.80 in 2.0 mi SW 13.8 mph 26.5 mph 0.34 in Rain , Thunderstorm Thunderstorms and Rain
6:18 AM 64.0 °F - 64.0 °F 100% 29.79 in 4.0 mi SSW 12.7 mph 21.9 mph 0.35 in Rain Light Rain
6:30 AM 64.0 °F - 64.0 °F 100% 29.79 in 3.0 mi SSW 12.7 mph - 0.40 in Rain Rain
6:40 AM 64.0 °F - 64.0 °F 100% 29.79 in 3.0 mi SSW 11.5 mph - 0.46 in Rain , Thunderstorm Rain
6:56 AM 64.0 °F - 64.0 °F 100% 29.76 in 3.0 mi South 6.9 mph - 0.52 in Rain Rain
7:56 AM 64.9 °F - 64.9 °F 100% 29.71 in 10.0 mi SSE 5.8 mph - 0.01 in   Mostly Cloudy
8:56 AM 68.0 °F - 68.0 °F 100% 29.70 in 10.0 mi South 6.9 mph - N/A   Clear
9:56 AM 68.0 °F - 66.0 °F 93% 29.71 in 10.0 mi SSW 11.5 mph - N/A   Scattered Clouds
10:09 AM 69.1 °F - 66.0 °F 90% 29.71 in 10.0 mi SSW 11.5 mph - N/A   Mostly Cloudy
10:49 AM 71.1 °F - 66.9 °F 87% 29.71 in 10.0 mi SW 10.4 mph - N/A   Mostly Cloudy
10:56 AM 71.1 °F - 66.0 °F 84% 29.70 in 10.0 mi SW 12.7 mph - N/A   Mostly Cloudy
11:56 AM 73.0 °F - 66.0 °F 79% 29.73 in 10.0 mi WSW 12.7 mph - N/A   Overcast
12:14 PM 73.0 °F - 64.9 °F 76% 29.74 in 10.0 mi SW 10.4 mph - N/A   Overcast
12:56 PM 75.0 °F - 64.9 °F 71% 29.72 in 10.0 mi WSW 13.8 mph 19.6 mph N/A   Mostly Cloudy
1:56 PM 75.9 °F - 66.0 °F 71% 29.70 in 10.0 mi WSW 12.7 mph - N/A   Scattered Clouds
2:56 PM 78.1 °F - 66.0 °F 66% 29.70 in 10.0 mi West 15.0 mph 24.2 mph N/A   Mostly Cloudy
3:56 PM 79.0 °F - 63.0 °F 58% 29.68 in 10.0 mi West 11.5 mph 24.2 mph N/A   Scattered Clouds
4:56 PM 80.1 °F 81.7 °F 64.0 °F 58% 29.69 in 10.0 mi WSW 13.8 mph 20.7 mph N/A   Mostly Cloudy
5:56 PM 77.0 °F - 62.1 °F 60% 29.68 in 10.0 mi WSW 11.5 mph 23.0 mph N/A   Scattered Clouds
6:56 PM 78.1 °F - 62.1 °F 58% 29.70 in 10.0 mi West 10.4 mph 21.9 mph N/A   Scattered Clouds
7:56 PM 75.9 °F - 62.1 °F 62% 29.71 in 10.0 mi West 8.1 mph 18.4 mph N/A   Partly Cloudy
8:56 PM 73.9 °F - 63.0 °F 68% 29.73 in 10.0 mi West 5.8 mph - N/A   Mostly Cloudy
9:56 PM 70.0 °F - 64.0 °F 81% 29.74 in 10.0 mi NNE 8.1 mph - N/A   Mostly Cloudy
10:20 PM 69.1 °F - 64.9 °F 87% 29.78 in 10.0 mi NNE 6.9 mph - N/A   Mostly Cloudy
10:56 PM 66.9 °F - 64.0 °F 90% 29.80 in 10.0 mi NNE 5.8 mph - N/A   Mostly Cloudy
11:48 PM 66.9 °F - 63.0 °F 87% 29.83 in 10.0 mi NE 5.8 mph - N/A   Mostly Cloudy
11:56 PM 64.9 °F - 62.1 °F 90% 29.82 in 10.0 mi NE 8.1 mph - N/A   Mostly Cloudy